Time,TemperatureF,DewpointF,PressureIn,WindDirection,WindDirectionDegrees,WindSpeedMPH,WindSpeedGustMPH,Humidity,HourlyPrecipIn,Conditions,Clouds,dailyrainin,SoftwareType,DateUTC
2013-04-15 00:03:00,38.0,24.0,30.23,NE,56,0.0,-999.0,57,-99.99,,,-99.99,,2013-04-15 04:03:00,
2013-04-15 00:13:00,38.0,24.0,30.23,NE,56,0.0,-999.0,57,-99.99,,,-99.99,,2013-04-15 04:13:00,
2013-04-15 00:23:00,38.0,25.0,30.22,NE,56,0.0,-999.0,58,-99.99,,,-99.99,,2013-04-15 04:23:00,
2013-04-15 00:33:00,37.0,25.0,30.22,ENE,57,2.0,-999.0,61,-99.99,,,-99.99,,2013-04-15 04:33:00,
2013-04-15 00:43:00,37.0,25.0,30.22,ENE,57,2.0,-999.0,61,-99.99,,,-99.99,,2013-04-15 04:43:00,
2013-04-15 00:52:00,36.0,25.0,30.22,ENE,57,0.0,-999.0,63,-99.99,,,-99.99,,2013-04-15 04:52:00,
2013-04-15 01:03:00,36.0,25.0,30.23,NE,56,0.0,-999.0,64,-99.99,,,-99.99,,2013-04-15 05:03:00,
2013-04-15 01:13:00,36.0,25.0,30.23,NE,56,0.0,-999.0,64,-99.99,,,-99.99,,2013-04-15 05:13:00,
2013-04-15 01:23:00,36.0,24.0,30.24,NE,56,0.0,-999.0,61,-99.99,,,-99.99,,2013-04-15 05:23:00,
2013-04-15 01:33:00,36.0,24.0,30.24,ENE,57,0.0,-999.0,61,-99.99,,,-99.99,,2013-04-15 05:33:00,
2013-04-15 01:42:00,36.0,24.0,30.24,ENE,57,0.0,-999.0,61,-99.99,,,-99.99,,2013-04-15 05:42:00,
2013-04-15 01:52:00,36.0,24.0,30.24,ENE,57,0.0,-999.0,62,-99.99,,,-99.99,,2013-04-15 05:52:00,
2013-04-15 02:02:00,36.0,24.0,30.24,NE,39,0.0,-999.0,61,-99.99,,,-99.99,,2013-04-15 06:02:00,
2013-04-15 02:12:00,36.0,24.0,30.24,NE,39,0.0,-999.0,61,-99.99,,,-99.99,,2013-04-15 06:12:00,
2013-04-15 02:23:00,36.0,24.0,30.24,NE,39,0.0,-999.0,61,-99.99,,,-99.99,,2013-04-15 06:23:00,
2013-04-15 02:33:00,36.0,24.0,30.23,NE,39,0.0,-999.0,62,-99.99,,,-99.99,,2013-04-15 06:33:00,
2013-04-15 02:42:00,36.0,24.0,30.23,NE,39,0.0,-999.0,62,-99.99,,,-99.99,,2013-04-15 06:42:00,
2013-04-15 02:52:00,36.0,25.0,30.23,NE,39,0.0,-999.0,64,-99.99,,,-99.99,,2013-04-15 06:52:00,
2013-04-15 03:03:00,35.0,24.0,30.24,NE,39,0.0,-999.0,64,-99.99,,,-99.99,,2013-04-15 07:03:00,
2013-04-15 03:42:00,35.0,24.0,30.24,NE,39,0.0,-999.0,64,-99.99,,,-99.99,,2013-04-15 07:42:00,
2013-04-15 03:43:00,35.0,24.0,30.24,NE,39,0.0,-999.0,63,-99.99,,,-99.99,,2013-04-15 07:43:00,
2013-04-15 03:53:00,35.0,24.0,30.25,NE,39,0.0,-999.0,64,-99.99,,,-99.99,,2013-04-15 07:53:00,
2013-04-15 04:03:00,34.0,23.0,30.26,NE,39,0.0,-999.0,65,-99.99,,,-99.99,,2013-04-15 08:03:00,
2013-04-15 04:13:00,34.0,23.0,30.26,NE,39,0.0,-999.0,65,-99.99,,,-99.99,,2013-04-15 08:13:00,
2013-04-15 04:22:00,35.0,24.0,30.25,NE,39,0.0,-999.0,63,-99.99,,,-99.99,,2013-04-15 08:22:00,
2013-04-15 04:34:00,35.0,24.0,30.25,NE,39,0.0,-999.0,64,-99.99,,,-99.99,,2013-04-15 08:34:00,
2013-04-15 04:42:00,35.0,24.0,30.25,NE,39,0.0,-999.0,64,-99.99,,,-99.99,,2013-04-15 08:42:00,
2013-04-15 04:52:00,35.0,24.0,30.26,NE,39,0.0,-999.0,64,-99.99,,,-99.99,,2013-04-15 08:52:00,
2013-04-15 05:03:00,34.0,24.0,30.27,NE,39,0.0,-999.0,66,-99.99,,,-99.99,,2013-04-15 09:03:00,
2013-04-15 05:12:00,34.0,24.0,30.27,NE,39,0.0,-999.0,66,-99.99,,,-99.99,,2013-04-15 09:12:00,
2013-04-15 05:23:00,34.0,25.0,30.28,NE,39,0.0,-999.0,70,-99.99,,,-99.99,,2013-04-15 09:23:00,
2013-04-15 05:33:00,34.0,24.0,30.29,NE,39,0.0,-999.0,66,-99.99,,,-99.99,,2013-04-15 09:33:00,
2013-04-15 05:43:00,34.0,24.0,30.29,NE,39,0.0,-999.0,66,-99.99,,,-99.99,,2013-04-15 09:43:00,
2013-04-15 05:53:00,34.0,24.0,30.29,NE,39,0.0,-999.0,67,-99.99,,,-99.99,,2013-04-15 09:53:00,
2013-04-15 06:03:00,34.0,25.0,30.31,NE,39,0.0,-999.0,68,-99.99,,,-99.99,,2013-04-15 10:03:00,
2013-04-15 06:13:00,34.0,25.0,30.31,NE,39,0.0,-999.0,68,-99.99,,,-99.99,,2013-04-15 10:13:00,
2013-04-15 06:23:00,34.0,24.0,30.31,NE,39,0.0,-999.0,66,-99.99,,,-99.99,,2013-04-15 10:23:00,
2013-04-15 06:33:00,35.0,25.0,30.32,NE,39,0.0,-999.0,66,-99.99,,,-99.99,,2013-04-15 10:33:00,
2013-04-15 06:42:00,35.0,25.0,30.32,NE,39,0.0,-999.0,66,-99.99,,,-99.99,,2013-04-15 10:42:00,
2013-04-15 06:52:00,34.0,24.0,30.33,NE,39,0.0,-999.0,67,-99.99,,,-99.99,,2013-04-15 10:52:00,
2013-04-15 07:03:00,34.0,25.0,30.34,NE,39,0.0,-999.0,68,-99.99,,,-99.99,,2013-04-15 11:03:00,
2013-04-15 07:13:00,34.0,25.0,30.34,NE,39,0.0,-999.0,68,-99.99,,,-99.99,,2013-04-15 11:13:00,
2013-04-15 07:23:00,34.0,25.0,30.35,NE,39,0.0,-999.0,69,-99.99,,,-99.99,,2013-04-15 11:23:00,
2013-04-15 07:32:00,35.0,25.0,30.35,NE,39,0.0,-999.0,67,-99.99,,,-99.99,,2013-04-15 11:32:00,
2013-04-15 07:43:00,35.0,25.0,30.35,NE,39,0.0,-999.0,67,-99.99,,,-99.99,,2013-04-15 11:43:00,
2013-04-15 07:53:00,35.0,25.0,30.35,NE,39,0.0,-999.0,66,-99.99,,,-99.99,,2013-04-15 11:53:00,
2013-04-15 08:05:00,36.0,26.0,30.35,NE,39,0.0,-999.0,68,-99.99,,,-99.99,,2013-04-15 12:05:00,
2013-04-15 08:14:00,36.0,26.0,30.35,NE,39,0.0,-999.0,68,-99.99,,,-99.99,,2013-04-15 12:14:00,
2013-04-15 08:23:00,36.0,26.0,30.35,NE,39,0.0,-999.0,67,-99.99,,,-99.99,,2013-04-15 12:23:00,
2013-04-15 08:34:00,37.0,26.0,30.35,NE,39,0.0,-999.0,65,-99.99,,,-99.99,,2013-04-15 12:34:00,
2013-04-15 08:43:00,37.0,26.0,30.35,NE,39,0.0,-999.0,65,-99.99,,,-99.99,,2013-04-15 12:43:00,
2013-04-15 08:53:00,37.0,26.0,30.35,NE,39,0.0,-999.0,63,-99.99,,,-99.99,,2013-04-15 12:53:00,
2013-04-15 09:05:00,39.0,26.0,30.36,NE,39,0.0,-999.0,60,-99.99,,,-99.99,,2013-04-15 13:05:00,
2013-04-15 09:13:00,39.0,26.0,30.36,NE,39,0.0,-999.0,60,-99.99,,,-99.99,,2013-04-15 13:13:00,
2013-04-15 09:23:00,40.0,27.0,30.38,NE,39,0.0,-999.0,59,-99.99,,,-99.99,,2013-04-15 13:23:00,
2013-04-15 09:34:00,41.0,28.0,30.38,NE,39,0.0,-999.0,59,-99.99,,,-99.99,,2013-04-15 13:34:00,
2013-04-15 09:43:00,41.0,28.0,30.38,NE,39,0.0,-999.0,59,-99.99,,,-99.99,,2013-04-15 13:43:00,
2013-04-15 09:53:00,41.0,28.0,30.39,NE,39,0.0,-999.0,59,-99.99,,,-99.99,,2013-04-15 13:53:00,
2013-04-15 10:05:00,41.0,28.0,30.39,NE,39,0.0,-999.0,60,-99.99,,,-99.99,,2013-04-15 14:05:00,
2013-04-15 10:13:00,41.0,28.0,30.39,NE,39,0.0,-999.0,60,-99.99,,,-99.99,,2013-04-15 14:13:00,
2013-04-15 10:23:00,42.0,29.0,30.39,NE,39,0.0,-999.0,59,-99.99,,,-99.99,,2013-04-15 14:23:00,
2013-04-15 10:44:00,43.0,29.0,30.38,NE,39,0.0,-999.0,58,-99.99,,,-99.99,,2013-04-15 14:44:00,
2013-04-15 10:54:00,45.0,29.0,30.38,ESE,112,0.0,-999.0,54,-99.99,,,-99.99,,2013-04-15 14:54:00,
2013-04-15 11:04:00,46.0,29.0,30.38,SE,129,0.0,-999.0,51,-99.99,,,-99.99,,2013-04-15 15:04:00,
2013-04-15 11:13:00,46.0,29.0,30.38,SE,129,0.0,-999.0,51,-99.99,,,-99.99,,2013-04-15 15:13:00,
2013-04-15 11:24:00,46.0,30.0,30.38,ENE,70,1.0,-999.0,53,-99.99,,,-99.99,,2013-04-15 15:24:00,
2013-04-15 11:35:00,47.0,28.0,30.37,SE,139,0.0,-999.0,48,-99.99,,,-99.99,,2013-04-15 15:35:00,
2013-04-15 11:44:00,47.0,28.0,30.37,SE,139,0.0,-999.0,48,-99.99,,,-99.99,,2013-04-15 15:44:00,
2013-04-15 11:54:00,48.0,28.0,30.38,SSW,208,1.0,-999.0,46,-99.99,,,-99.99,,2013-04-15 15:54:00,
2013-04-15 12:05:00,49.0,29.0,30.37,SSW,205,0.0,-999.0,45,-99.99,,,-99.99,,2013-04-15 16:05:00,
2013-04-15 12:14:00,49.0,29.0,30.37,SSW,205,0.0,-999.0,45,-99.99,,,-99.99,,2013-04-15 16:14:00,
2013-04-15 12:25:00,49.0,27.0,30.37,SSW,201,2.0,-999.0,43,-99.99,,,-99.99,,2013-04-15 16:25:00,
2013-04-15 12:34:00,49.0,27.0,30.37,East,85,1.0,-999.0,43,-99.99,,,-99.99,,2013-04-15 16:34:00,
2013-04-15 12:44:00,49.0,27.0,30.37,East,85,1.0,-999.0,43,-99.99,,,-99.99,,2013-04-15 16:44:00,
2013-04-15 12:53:00,50.0,27.0,30.37,SSE,147,1.0,-999.0,41,-99.99,,,-99.99,,2013-04-15 16:53:00,
2013-04-15 13:04:00,51.0,29.0,30.36,South,171,0.0,-999.0,42,-99.99,,,-99.99,,2013-04-15 17:04:00,
2013-04-15 13:15:00,51.0,29.0,30.36,South,171,0.0,-999.0,42,-99.99,,,-99.99,,2013-04-15 17:15:00,
2013-04-15 13:22:00,51.0,29.0,30.35,SSW,210,1.0,-999.0,43,-99.99,,,-99.99,,2013-04-15 17:22:00,
2013-04-15 13:33:00,53.0,29.0,30.35,SSW,204,1.0,-999.0,39,-99.99,,,-99.99,,2013-04-15 17:33:00,
2013-04-15 13:43:00,53.0,29.0,30.35,SSW,204,1.0,-999.0,39,-99.99,,,-99.99,,2013-04-15 17:43:00,
2013-04-15 13:52:00,53.0,28.0,30.35,SSW,204,1.0,-999.0,38,-99.99,,,-99.99,,2013-04-15 17:52:00,
2013-04-15 14:03:00,54.0,30.0,30.35,SSW,194,1.0,-999.0,40,-99.99,,,-99.99,,2013-04-15 18:03:00,
2013-04-15 14:13:00,54.0,30.0,30.35,SSW,194,1.0,-999.0,40,-99.99,,,-99.99,,2013-04-15 18:13:00,
2013-04-15 14:24:00,54.0,30.0,30.35,SE,130,0.0,-999.0,40,-99.99,,,-99.99,,2013-04-15 18:24:00,
2013-04-15 14:33:00,54.0,30.0,30.35,SSW,205,1.0,-999.0,40,-99.99,,,-99.99,,2013-04-15 18:33:00,
2013-04-15 14:42:00,54.0,30.0,30.35,SSW,205,1.0,-999.0,40,-99.99,,,-99.99,,2013-04-15 18:42:00,
2013-04-15 14:52:00,56.0,31.0,30.34,SSW,208,1.0,-999.0,39,-99.99,,,-99.99,,2013-04-15 18:52:00,
2013-04-15 15:02:00,57.0,32.0,30.33,South,178,1.0,-999.0,38,-99.99,,,-99.99,,2013-04-15 19:02:00,
2013-04-15 15:12:00,57.0,32.0,30.33,South,178,1.0,-999.0,38,-99.99,,,-99.99,,2013-04-15 19:12:00,
2013-04-15 15:22:00,57.0,32.0,30.32,South,170,1.0,-999.0,39,-99.99,,,-99.99,,2013-04-15 19:22:00,
2013-04-15 15:54:00,56.0,31.0,30.33,SSW,201,1.0,-999.0,39,-99.99,,,-99.99,,2013-04-15 19:54:00,
2013-04-15 16:02:00,56.0,29.0,30.32,SE,139,1.0,-999.0,36,-99.99,,,-99.99,,2013-04-15 20:02:00,
2013-04-15 16:11:00,56.0,29.0,30.32,SE,139,1.0,-999.0,36,-99.99,,,-99.99,,2013-04-15 20:11:00,
2013-04-15 16:22:00,57.0,30.0,30.32,SW,220,2.0,-999.0,36,-99.99,,,-99.99,,2013-04-15 20:22:00,
2013-04-15 16:32:00,57.0,29.0,30.31,SE,141,1.0,-999.0,34,-99.99,,,-99.99,,2013-04-15 20:32:00,
2013-04-15 16:42:00,57.0,29.0,30.31,SE,141,1.0,-999.0,34,-99.99,,,-99.99,,2013-04-15 20:42:00,
2013-04-15 16:52:00,56.0,29.0,30.31,SW,215,2.0,-999.0,35,-99.99,,,-99.99,,2013-04-15 20:52:00,
2013-04-15 17:02:00,56.0,30.0,30.31,SW,236,2.0,-999.0,37,-99.99,,,-99.99,,2013-04-15 21:02:00,
2013-04-15 17:12:00,56.0,30.0,30.31,SW,236,2.0,-999.0,37,-99.99,,,-99.99,,2013-04-15 21:12:00,
2013-04-15 17:22:00,56.0,31.0,30.30,SW,232,3.0,-999.0,39,-99.99,,,-99.99,,2013-04-15 21:22:00,
2013-04-15 17:33:00,55.0,31.0,30.31,SSW,204,2.0,-999.0,40,-99.99,,,-99.99,,2013-04-15 21:33:00,
2013-04-15 17:43:00,55.0,31.0,30.31,SSW,204,2.0,-999.0,40,-99.99,,,-99.99,,2013-04-15 21:43:00,
2013-04-15 17:53:00,54.0,30.0,30.32,SW,226,3.0,-999.0,40,-99.99,,,-99.99,,2013-04-15 21:53:00,
2013-04-15 18:02:00,53.0,30.0,30.32,SW,214,3.0,-999.0,41,-99.99,,,-99.99,,2013-04-15 22:02:00,
2013-04-15 18:13:00,53.0,30.0,30.32,SW,214,3.0,-999.0,41,-99.99,,,-99.99,,2013-04-15 22:13:00,
2013-04-15 18:23:00,53.0,31.0,30.33,SSW,208,2.0,-999.0,43,-99.99,,,-99.99,,2013-04-15 22:23:00,
2013-04-15 18:33:00,52.0,31.0,30.34,SSW,198,3.0,-999.0,44,-99.99,,,-99.99,,2013-04-15 22:33:00,
2013-04-15 18:42:00,52.0,31.0,30.34,SSW,198,3.0,-999.0,44,-99.99,,,-99.99,,2013-04-15 22:42:00,
2013-04-15 18:52:00,52.0,31.0,30.34,SW,218,2.0,-999.0,45,-99.99,,,-99.99,,2013-04-15 22:52:00,
2013-04-15 19:02:00,51.0,31.0,30.35,SW,233,1.0,-999.0,46,-99.99,,,-99.99,,2013-04-15 23:02:00,
2013-04-15 19:12:00,51.0,31.0,30.35,SW,233,1.0,-999.0,46,-99.99,,,-99.99,,2013-04-15 23:12:00,
2013-04-15 19:22:00,50.0,31.0,30.35,SW,232,0.0,-999.0,47,-99.99,,,-99.99,,2013-04-15 23:22:00,
2013-04-15 19:32:00,50.0,31.0,30.35,SSW,210,1.0,-999.0,48,-99.99,,,-99.99,,2013-04-15 23:32:00,
2013-04-15 19:42:00,50.0,31.0,30.35,SSW,210,1.0,-999.0,48,-99.99,,,-99.99,,2013-04-15 23:42:00,
2013-04-15 19:52:00,49.0,31.0,30.34,SW,229,2.0,-999.0,49,-99.99,,,-99.99,,2013-04-15 23:52:00,
2013-04-15 20:03:00,48.0,31.0,30.34,SW,226,1.0,-999.0,51,-99.99,,,-99.99,,2013-04-16 00:03:00,
2013-04-15 20:12:00,48.0,31.0,30.34,SW,226,1.0,-999.0,51,-99.99,,,-99.99,,2013-04-16 00:12:00,
2013-04-15 20:22:00,48.0,32.0,30.35,SSW,199,0.0,-999.0,53,-99.99,,,-99.99,,2013-04-16 00:22:00,
2013-04-15 20:32:00,47.0,32.0,30.35,SSW,200,0.0,-999.0,55,-99.99,,,-99.99,,2013-04-16 00:32:00,
2013-04-15 20:42:00,47.0,32.0,30.35,SSW,200,0.0,-999.0,55,-99.99,,,-99.99,,2013-04-16 00:42:00,
2013-04-15 20:52:00,46.0,31.0,30.37,SSW,197,0.0,-999.0,55,-99.99,,,-99.99,,2013-04-16 00:52:00,
2013-04-15 21:02:00,46.0,31.0,30.37,SSW,198,0.0,-999.0,55,-99.99,,,-99.99,,2013-04-16 01:02:00,
2013-04-15 21:12:00,46.0,31.0,30.37,SSW,198,0.0,-999.0,55,-99.99,,,-99.99,,2013-04-16 01:12:00,
2013-04-15 21:22:00,45.0,30.0,30.37,SSW,198,0.0,-999.0,56,-99.99,,,-99.99,,2013-04-16 01:22:00,
2013-04-15 21:32:00,45.0,31.0,30.37,SSW,201,0.0,-999.0,57,-99.99,,,-99.99,,2013-04-16 01:32:00,
2013-04-15 21:42:00,45.0,31.0,30.37,SSW,201,0.0,-999.0,57,-99.99,,,-99.99,,2013-04-16 01:42:00,
2013-04-15 21:52:00,45.0,31.0,30.37,SSW,202,1.0,-999.0,58,-99.99,,,-99.99,,2013-04-16 01:52:00,
2013-04-15 22:02:00,44.0,31.0,30.38,SSW,202,0.0,-999.0,59,-99.99,,,-99.99,,2013-04-16 02:02:00,
2013-04-15 22:12:00,44.0,31.0,30.38,SSW,202,0.0,-999.0,59,-99.99,,,-99.99,,2013-04-16 02:12:00,
2013-04-15 22:22:00,44.0,31.0,30.38,SSW,202,0.0,-999.0,60,-99.99,,,-99.99,,2013-04-16 02:22:00,
2013-04-15 22:32:00,43.0,31.0,30.39,SW,231,0.0,-999.0,62,-99.99,,,-99.99,,2013-04-16 02:32:00,
2013-04-15 22:42:00,43.0,31.0,30.39,SW,231,0.0,-999.0,62,-99.99,,,-99.99,,2013-04-16 02:42:00,
2013-04-15 22:52:00,43.0,31.0,30.38,SW,231,0.0,-999.0,63,-99.99,,,-99.99,,2013-04-16 02:52:00,
2013-04-15 23:02:00,42.0,31.0,30.39,SW,231,0.0,-999.0,65,-99.99,,,-99.99,,2013-04-16 03:02:00,
2013-04-15 23:12:00,42.0,31.0,30.39,SW,231,0.0,-999.0,65,-99.99,,,-99.99,,2013-04-16 03:12:00,
2013-04-15 23:22:00,42.0,32.0,30.39,SW,232,0.0,-999.0,67,-99.99,,,-99.99,,2013-04-16 03:22:00,
2013-04-15 23:33:00,42.0,32.0,30.38,SW,232,0.0,-999.0,68,-99.99,,,-99.99,,2013-04-16 03:33:00,
2013-04-15 23:43:00,42.0,32.0,30.38,SW,232,0.0,-999.0,68,-99.99,,,-99.99,,2013-04-16 03:43:00,
2013-04-15 23:52:00,41.0,32.0,30.38,SW,232,0.0,-999.0,69,-99.99,,,-99.99,,2013-04-16 03:52:00,